This is the latest recevied weather packets stored in our database for station/object IZ1UQG-N2. If no packets are shown the sender has not sent any weather packets the latest 10 day(s).
| Time | Temp. | Humidity | Pressure | Rain* | Wind** | Luminosity | Snow |
|---|---|---|---|---|---|---|---|
| 1787553722 | 19.44° C | 78% | 1017.1 hPa | 0 mm | - | 278 W/m² | - |
| 1787553662 | 19.44° C | 78% | 1017.1 hPa | 0 mm | - | 267 W/m² | - |
| 1787553603 | 19.44° C | 78% | 1017 hPa | 0 mm | - | 250 W/m² | - |
| 1787553543 | 19.44° C | 78% | 1017.1 hPa | 0 mm | - | 251 W/m² | - |
| 1787553483 | 19.44° C | 79% | 1017.1 hPa | 0 mm | - | 207 W/m² | - |
| 1787553423 | 19.44° C | 79% | 1017 hPa | 0 mm | - | 188 W/m² | - |
| 1787553363 | 18.89° C | 79% | 1017 hPa | 0 mm | - | 111 W/m² | - |
| 1787553302 | 18.89° C | 79% | 1017 hPa | 0 mm | - | 109 W/m² | - |
| 1787553242 | 18.89° C | 79% | 1017 hPa | 0 mm | - | 105 W/m² | - |
| 1787553182 | 18.89° C | 79% | 1017.1 hPa | 0 mm | - | 104 W/m² | - |
| 1787553122 | 18.89° C | 79% | 1017.2 hPa | 0 mm | - | 100 W/m² | - |
| 1787553085 | 18.89° C | 79% | 1017.1 hPa | 0 mm | - | 98 W/m² | - |
| 1787553024 | 18.89° C | 79% | 1017.1 hPa | 0 mm | - | 93 W/m² | - |
| 1787552983 | 18.89° C | 79% | 1017.2 hPa | 0 mm | - | 91 W/m² | - |
| 1787552923 | 18.89° C | 79% | 1017 hPa | 0 mm | - | 90 W/m² | - |
| 1787552863 | 18.89° C | 79% | 1017.1 hPa | 0 mm | - | 88 W/m² | - |
| 1787552803 | 18.89° C | 79% | 1017.2 hPa | 0 mm | - | 88 W/m² | - |
| 1787552743 | 18.89° C | 79% | 1017.1 hPa | 0 mm | - | 86 W/m² | - |
| 1787552683 | 18.89° C | 78% | 1017.2 hPa | 0 mm | - | 84 W/m² | - |
| 1787552622 | 18.89° C | 78% | 1017.2 hPa | 0 mm | - | 83 W/m² | - |
| 1787552562 | 18.89° C | 78% | 1017.2 hPa | 0 mm | - | 83 W/m² | - |
| 1787552502 | 18.89° C | 78% | 1017.3 hPa | 0 mm | - | 81 W/m² | - |
| 1787552442 | 18.89° C | 78% | 1017.2 hPa | 0 mm | - | 81 W/m² | - |
| 1787552382 | 18.89° C | 78% | 1017.2 hPa | 0 mm | - | 83 W/m² | - |
| 1787552321 | 18.89° C | 79% | 1017.2 hPa | 0 mm | - | 83 W/m² | - |
* Rain latest hour (hover to see other rain measurements)
** Current wind speed in m/s (hover to see current wind gust speed)